Retour au catalogue

STARLINK-35992

ActifCommunicationsVLEO
NORAD 66852·PAYLOAD·🇺🇸 United States

Lancé Dec 2, 2025 depuis Cape Canaveral Space Force Station

Loading…

Prochains Passages (prochaines 24 heures)

TLE

FraisSource: CelesTrak SupGP

Époque: Sep 15, 2026, 04:15 UTC

1 66852C 25281E   26258.17756944  .00043758  00000+0  15843-2 0  2588
2 66852  43.0014 353.2071 0001650 261.5946 213.5310 15.27568985    19

Suivez STARLINK-35992 en temps réel avec AllMySat

Download on the App Store